contact:dominique.lefevre@mio.osupytheas.fr, maurice.libes@osupytheas.fr, didier.mallarino@osupytheas.fr
Project:EMSO http://www.emso-fr.org/EMSO-France
Depth: 2436.0 m
Title:EMSO Ligure Ouest : Data MII capteur AQUADOPP
Date,Latitude,Longitude,X_East,Y_North,Z_Up,Amplitude_X,Amplitude_Y,Amplitude_Z,Batterie,SoundSpeed,Heading,Pitch,Roll,Pressure,TIS,Speed,Direction
, degrees North, degrees East, m.s-1, m.s-1,m.s-1, 1, 1, 1, Volt, m.s-1, degree, degree, degree, dbar, degree_C, m.s-1, degree
2020-01-26T00:04:03,42.805,6.029,-0.043,0.016,-0.012,108.0,114.0,104.0,13.4,1505.3,326.5,-0.7,1.8,2470.175,13.31,0.045,290.4
2020-01-26T00:07:03,42.805,6.029,-0.043,0.033,0.0,109.0,113.0,103.0,13.4,1505.3,326.8,-0.7,1.8,2470.181,13.31,0.054,307.5
2020-01-26T00:10:03,42.805,6.029,-0.017,0.055,-0.003,107.0,114.0,104.0,13.3,1505.3,327.0,-0.7,1.8,2470.156,13.32,0.057,342.8
2020-01-26T00:13:03,42.805,6.029,-0.05,0.04,0.0,108.0,114.0,104.0,13.3,1505.3,327.4,-0.7,1.8,2470.168,13.32,0.064,308.7
2020-01-26T00:16:03,42.805,6.029,-0.065,0.031,-0.019,107.0,113.0,104.0,13.4,1505.3,325.5,-0.7,1.8,2470.182,13.32,0.072,295.5
2020-01-26T00:19:03,42.805,6.029,-0.051,0.039,-0.015,109.0,114.0,104.0,13.4,1505.3,327.0,-0.7,1.9,2470.161,13.32,0.064,307.4
2020-01-26T00:22:03,42.805,6.029,-0.046,0.029,-0.012,107.0,116.0,105.0,13.4,1505.3,327.9,-0.6,1.8,2470.138,13.32,0.054,302.2
2020-01-26T00:25:03,42.805,6.029,-0.052,0.048,0.016,108.0,116.0,105.0,13.4,1505.3,326.9,-0.7,1.8,2470.141,13.32,0.07,312.7
2020-01-26T00:28:03,42.805,6.029,-0.068,0.016,-0.003,108.0,114.0,104.0,13.4,1505.3,328.7,-0.7,1.9,2470.139,13.32,0.069,283.2
2020-01-26T00:31:03,42.805,6.029,-0.052,0.046,-0.016,108.0,115.0,104.0,13.3,1505.3,326.6,-0.8,1.8,2470.122,13.33,0.069,311.5
2020-01-26T00:34:03,42.805,6.029,-0.056,0.04,0.01,108.0,116.0,104.0,13.4,1505.3,325.7,-0.7,1.9,2470.144,13.33,0.068,305.5
2020-01-26T00:37:03,42.805,6.029,-0.028,0.03,-0.017,109.0,114.0,104.0,13.4,1505.3,324.7,-0.7,1.8,2470.123,13.32,0.041,317.0
2020-01-26T00:40:03,42.805,6.029,-0.062,0.044,0.006,108.0,118.0,104.0,13.4,1505.3,323.5,-0.7,1.9,2470.113,13.33,0.076,305.4
2020-01-26T00:43:03,42.805,6.029,-0.041,0.047,-0.03,107.0,115.0,104.0,13.4,1505.3,325.1,-0.8,1.8,2470.092,13.33,0.062,318.9
2020-01-26T00:46:03,42.805,6.029,-0.057,0.016,-0.041,109.0,115.0,105.0,13.4,1505.3,323.9,-0.7,1.8,2470.121,13.33,0.059,285.7
2020-01-26T00:49:03,42.805,6.029,-0.041,0.025,-0.009,109.0,117.0,104.0,13.4,1505.3,328.5,-0.7,1.9,2470.11,13.33,0.048,301.4
2020-01-26T00:52:03,42.805,6.029,-0.027,0.031,0.019,109.0,115.0,105.0,13.4,1505.3,327.1,-0.7,1.8,2470.098,13.33,0.041,318.9
2020-01-26T00:55:03,42.805,6.029,-0.049,0.026,0.008,109.0,116.0,105.0,13.3,1505.3,327.6,-0.7,1.8,2470.093,13.33,0.055,297.9
2020-01-26T00:58:03,42.805,6.029,-0.06,0.021,0.0,108.0,119.0,105.0,13.3,1505.3,323.4,-0.7,1.8,2470.111,13.33,0.063,289.3
2020-01-26T01:04:03,42.805,6.029,-0.027,0.025,0.025,110.0,116.0,106.0,13.4,1505.3,328.4,-0.7,1.9,2470.129,13.31,0.036,312.8
2020-01-26T01:07:04,42.805,6.029,-0.054,0.027,-0.011,109.0,116.0,105.0,13.3,1505.3,323.4,-0.7,1.8,2470.156,13.31,0.06,296.6
2020-01-26T01:10:03,42.805,6.029,-0.049,0.018,0.006,110.0,115.0,105.0,13.4,1505.3,325.0,-0.7,1.9,2470.118,13.32,0.052,290.2
2020-01-26T01:13:03,42.805,6.029,-0.028,0.031,0.019,109.0,117.0,104.0,13.3,1505.3,324.4,-0.7,1.8,2470.135,13.32,0.041,317.9
2020-01-26T01:16:03,42.805,6.029,-0.053,0.011,-0.015,110.0,117.0,104.0,13.4,1505.3,325.0,-0.7,1.8,2470.095,13.32,0.054,281.7
2020-01-26T01:19:03,42.805,6.029,-0.062,0.018,0.0,111.0,116.0,104.0,13.3,1505.3,325.9,-0.7,1.8,2470.133,13.33,0.064,286.2
2020-01-26T01:22:03,42.805,6.029,-0.059,0.037,-0.029,109.0,117.0,104.0,13.4,1505.3,328.4,-0.7,1.8,2470.139,13.33,0.069,302.1
2020-01-26T01:25:03,42.805,6.029,-0.073,0.029,-0.026,108.0,119.0,104.0,13.4,1505.3,323.4,-0.8,1.8,2470.092,13.33,0.078,291.7
2020-01-26T01:28:03,42.805,6.029,-0.055,0.018,-0.026,109.0,117.0,105.0,13.4,1505.3,325.5,-0.7,1.8,2470.09,13.33,0.057,288.1
2020-01-26T01:31:03,42.805,6.029,-0.032,0.05,0.003,110.0,116.0,105.0,13.4,1505.3,326.2,-0.7,1.8,2470.103,13.33,0.059,327.4
2020-01-26T01:34:03,42.805,6.029,-0.044,0.027,0.016,108.0,114.0,105.0,13.4,1505.3,326.9,-0.7,1.9,2470.11,13.33,0.051,301.5
2020-01-26T01:37:03,42.805,6.029,-0.034,0.034,-0.007,110.0,117.0,106.0,13.4,1505.3,326.5,-0.7,1.8,2470.079,13.33,0.048,315.0
2020-01-26T01:40:03,42.805,6.029,-0.063,0.029,-0.016,108.0,116.0,105.0,13.4,1505.3,326.9,-0.7,1.8,2470.115,13.33,0.069,294.7
2020-01-26T01:43:03,42.805,6.029,-0.034,0.009,-0.031,109.0,117.0,104.0,13.4,1505.3,327.7,-0.7,1.8,2470.119,13.33,0.035,284.8
2020-01-26T01:46:03,42.805,6.029,-0.047,0.018,-0.012,108.0,116.0,104.0,13.3,1505.3,326.5,-0.7,1.8,2470.106,13.33,0.05,291.0
2020-01-26T01:49:03,42.805,6.029,-0.034,0.006,0.011,109.0,117.0,105.0,13.3,1505.3,327.1,-0.7,1.9,2470.08,13.33,0.034,280.0
2020-01-26T01:52:03,42.805,6.029,-0.024,0.017,-0.016,109.0,119.0,105.0,13.4,1505.3,327.2,-0.7,1.8,2470.074,13.33,0.029,305.3
2020-01-26T01:55:03,42.805,6.029,-0.039,0.025,-0.005,110.0,117.0,105.0,13.3,1505.3,326.0,-0.7,1.9,2470.08,13.33,0.046,302.7
2020-01-26T01:58:03,42.805,6.029,-0.053,0.01,-0.005,110.0,116.0,106.0,13.3,1505.3,325.3,-0.7,1.8,2470.099,13.33,0.053,280.7
2020-01-26T02:04:03,42.805,6.029,-0.058,0.024,0.005,108.0,119.0,105.0,13.4,1505.3,323.8,-0.7,1.8,2470.094,13.31,0.062,292.5
2020-01-26T02:07:03,42.805,6.029,-0.037,0.01,0.029,108.0,117.0,105.0,13.4,1505.3,325.6,-0.7,1.8,2470.111,13.31,0.038,285.1
2020-01-26T02:10:03,42.805,6.029,-0.055,0.011,0.005,109.0,117.0,103.0,13.4,1505.3,324.9,-0.7,1.8,2470.121,13.32,0.056,281.3
2020-01-26T02:13:03,42.805,6.029,-0.049,0.03,0.0,108.0,118.0,104.0,13.4,1505.3,325.1,-0.7,1.8,2470.116,13.32,0.057,301.5
2020-01-26T02:16:03,42.805,6.029,-0.061,0.042,-0.005,109.0,118.0,104.0,13.4,1505.3,325.7,-0.7,1.8,2470.14,13.32,0.074,304.6
2020-01-26T02:19:03,42.805,6.029,-0.064,0.047,-0.005,108.0,116.0,104.0,13.4,1505.3,328.1,-0.7,1.8,2470.072,13.33,0.079,306.3
2020-01-26T02:22:03,42.805,6.029,-0.048,0.031,0.004,110.0,118.0,103.0,13.4,1505.3,327.8,-0.7,1.9,2470.079,13.33,0.057,302.9
2020-01-26T02:25:03,42.805,6.029,-0.025,0.02,0.02,108.0,116.0,105.0,13.3,1505.3,324.1,-0.7,1.8,2470.14,13.33,0.032,308.7
2020-01-26T02:28:03,42.805,6.029,-0.022,0.037,-0.015,108.0,117.0,103.0,13.3,1505.3,327.3,-0.7,1.8,2470.12,13.33,0.043,329.3
2020-01-26T02:31:03,42.805,6.029,-0.038,0.029,-0.014,110.0,117.0,105.0,13.3,1505.3,326.8,-0.7,1.8,2470.118,13.33,0.047,307.3
2020-01-26T02:34:03,42.805,6.029,-0.051,0.013,-0.014,109.0,115.0,105.0,13.4,1505.3,325.2,-0.7,1.8,2470.096,13.33,0.052,284.3
2020-01-26T02:37:03,42.805,6.029,-0.047,0.033,0.0,107.0,117.0,104.0,13.3,1505.3,326.3,-0.7,1.8,2470.137,13.33,0.057,305.1
2020-01-26T02:40:03,42.805,6.029,-0.033,0.026,-0.002,108.0,117.0,104.0,13.4,1505.3,328.5,-0.7,1.8,2470.125,13.33,0.042,308.2
2020-01-26T02:43:03,42.805,6.029,-0.052,0.036,-0.022,109.0,117.0,105.0,13.4,1505.3,327.3,-0.7,1.8,2470.145,13.33,0.063,304.7
2020-01-26T02:46:03,42.805,6.029,-0.046,0.024,-0.029,108.0,117.0,104.0,13.4,1505.3,326.5,-0.7,1.8,2470.113,13.33,0.051,297.6
2020-01-26T02:49:03,42.805,6.029,-0.043,0.045,0.005,108.0,116.0,104.0,13.4,1505.3,327.9,-0.7,1.8,2470.116,13.33,0.062,316.3
2020-01-26T02:52:03,42.805,6.029,-0.029,0.035,-0.019,108.0,116.0,103.0,13.4,1505.3,325.8,-0.7,1.8,2470.088,13.33,0.045,320.4
2020-01-26T02:55:03,42.805,6.029,-0.041,0.026,-0.007,107.0,118.0,103.0,13.4,1505.3,325.3,-0.7,1.8,2470.087,13.33,0.048,302.4
2020-01-26T02:58:03,42.805,6.029,-0.033,0.05,0.002,108.0,115.0,104.0,13.4,1505.3,326.2,-0.7,1.8,2470.101,13.33,0.059,326.6
2020-01-26T03:04:03,42.805,6.029,-0.016,0.0,-0.03,108.0,115.0,104.0,13.3,1505.3,325.3,-0.7,1.8,2470.139,13.31,0.016,270.0
2020-01-26T03:07:03,42.805,6.029,-0.048,0.055,-0.002,107.0,115.0,105.0,13.3,1505.3,328.3,-0.7,1.9,2470.097,13.32,0.072,318.9
2020-01-26T03:10:03,42.805,6.029,-0.03,0.036,0.04,108.0,116.0,104.0,13.3,1505.3,326.0,-0.7,1.8,2470.12,13.32,0.046,320.2
2020-01-26T03:13:03,42.805,6.029,-0.016,-0.001,0.001,109.0,115.0,104.0,13.3,1505.3,328.1,-0.7,1.8,2470.123,13.32,0.016,266.4
2020-01-26T03:16:03,42.805,6.029,-0.049,0.028,0.011,108.0,116.0,104.0,13.4,1505.3,323.8,-0.7,1.8,2470.135,13.33,0.056,299.7
2020-01-26T03:19:03,42.805,6.029,-0.021,0.031,-0.024,108.0,117.0,103.0,13.4,1505.3,324.7,-0.7,1.8,2470.11,13.33,0.037,325.9
2020-01-26T03:22:03,42.805,6.029,-0.04,0.036,0.02,108.0,115.0,105.0,13.4,1505.3,324.9,-0.7,1.9,2470.101,13.33,0.053,312.0
2020-01-26T03:25:03,42.805,6.029,-0.04,0.03,-0.003,109.0,116.0,104.0,13.4,1505.3,324.7,-0.7,1.8,2470.105,13.33,0.05,306.9
2020-01-26T03:28:03,42.805,6.029,-0.03,0.017,-0.02,112.0,115.0,104.0,13.4,1505.3,326.8,-0.7,1.8,2470.118,13.33,0.034,299.5
2020-01-26T03:31:03,42.805,6.029,-0.038,0.039,-0.013,108.0,117.0,103.0,13.3,1505.3,324.2,-0.7,1.8,2470.107,13.33,0.054,315.7
2020-01-26T03:34:03,42.805,6.029,-0.043,0.042,0.005,108.0,116.0,103.0,13.4,1505.3,324.3,-0.8,1.8,2470.115,13.33,0.06,314.3
2020-01-26T03:37:03,42.805,6.029,-0.048,0.019,-0.042,108.0,115.0,104.0,13.4,1505.3,327.4,-0.7,1.8,2470.115,13.33,0.051,291.6
2020-01-26T03:40:03,42.805,6.029,-0.063,0.022,-0.038,106.0,116.0,104.0,13.4,1505.3,328.3,-0.7,1.9,2470.123,13.33,0.066,289.2
2020-01-26T03:43:03,42.805,6.029,-0.03,0.036,-0.005,107.0,116.0,104.0,13.3,1505.3,327.7,-0.7,1.8,2470.125,13.33,0.046,320.2
2020-01-26T03:46:03,42.805,6.029,-0.031,0.05,-0.024,107.0,116.0,103.0,13.4,1505.3,328.2,-0.7,1.8,2470.102,13.33,0.058,328.2
2020-01-26T03:49:03,42.805,6.029,-0.013,0.039,-0.011,106.0,116.0,103.0,13.3,1505.3,326.4,-0.7,1.8,2470.146,13.33,0.041,341.6
2020-01-26T03:52:03,42.805,6.029,-0.019,0.027,-0.021,107.0,115.0,104.0,13.3,1505.3,325.7,-0.7,1.9,2470.123,13.33,0.033,324.9
2020-01-26T03:55:03,42.805,6.029,-0.053,0.012,-0.011,106.0,114.0,103.0,13.4,1505.3,325.1,-0.7,1.8,2470.146,13.33,0.054,282.8
2020-01-26T03:58:03,42.805,6.029,-0.013,0.017,-0.021,108.0,115.0,103.0,13.4,1505.3,325.0,-0.7,1.8,2470.121,13.33,0.021,322.6
2020-01-26T04:04:03,42.805,6.029,-0.021,0.033,-0.008,106.0,113.0,103.0,13.4,1505.3,327.6,-0.7,1.8,2470.184,13.31,0.039,327.5
2020-01-26T04:07:03,42.805,6.029,-0.037,0.005,-0.018,107.0,116.0,102.0,13.3,1505.3,328.4,-0.7,1.8,2470.159,13.32,0.037,277.7
2020-01-26T04:10:03,42.805,6.029,-0.017,0.035,0.001,108.0,115.0,103.0,13.4,1505.3,328.4,-0.7,1.9,2470.198,13.32,0.038,334.1
2020-01-26T04:13:03,42.805,6.029,-0.021,0.033,-0.017,108.0,115.0,103.0,13.3,1505.3,328.4,-0.7,1.9,2470.202,13.33,0.039,327.5
2020-01-26T04:16:03,42.805,6.029,-0.034,0.026,-0.017,107.0,114.0,103.0,13.4,1505.3,326.3,-0.8,1.8,2470.131,13.33,0.042,307.4
2020-01-26T04:19:03,42.805,6.029,-0.013,0.02,-0.007,107.0,112.0,103.0,13.4,1505.3,324.8,-0.7,1.8,2470.135,13.33,0.023,327.0
2020-01-26T04:22:03,42.805,6.029,-0.04,0.021,-0.019,107.0,115.0,104.0,13.4,1505.3,329.0,-0.7,1.8,2470.121,13.33,0.045,297.7
2020-01-26T04:25:03,42.805,6.029,-0.03,0.011,-0.002,107.0,115.0,104.0,13.4,1505.3,323.7,-0.7,1.8,2470.17,13.33,0.031,290.1
2020-01-26T04:28:03,42.805,6.029,-0.022,0.0,-0.037,106.0,115.0,105.0,13.4,1505.3,324.0,-0.7,1.8,2470.186,13.33,0.022,270.0
2020-01-26T04:31:03,42.805,6.029,-0.021,0.034,-0.033,108.0,114.0,104.0,13.4,1505.3,326.9,-0.7,1.8,2470.188,13.33,0.039,328.3
2020-01-26T04:34:03,42.805,6.029,-0.024,-0.01,-0.043,106.0,115.0,103.0,13.4,1505.3,325.3,-0.7,1.8,2470.143,13.33,0.026,247.4
2020-01-26T04:37:03,42.805,6.029,-0.022,0.011,-0.019,108.0,114.0,102.0,13.4,1505.3,324.7,-0.7,1.8,2470.148,13.33,0.024,296.6
2020-01-26T04:40:03,42.805,6.029,-0.028,0.013,-0.029,107.0,114.0,103.0,13.4,1505.3,325.9,-0.7,1.8,2470.162,13.33,0.03,294.9
2020-01-26T04:43:03,42.805,6.029,-0.044,0.012,-0.081,106.0,115.0,104.0,13.3,1505.3,325.2,-0.7,1.8,2470.164,13.33,0.045,285.3
2020-01-26T04:46:03,42.805,6.029,-0.024,-0.003,-0.012,107.0,115.0,102.0,13.4,1505.3,325.3,-0.7,1.9,2470.164,13.33,0.024,262.9
2020-01-26T04:49:03,42.805,6.029,-0.024,0.005,0.005,106.0,115.0,105.0,13.4,1505.3,327.0,-0.7,1.9,2470.199,13.33,0.024,281.8
2020-01-26T04:52:03,42.805,6.029,-0.01,0.009,-0.028,107.0,114.0,103.0,13.4,1505.4,328.3,-0.7,1.8,2470.179,13.34,0.013,312.0
2020-01-26T04:55:03,42.805,6.029,-0.017,0.017,0.029,106.0,115.0,102.0,13.4,1505.4,322.9,-0.7,1.8,2470.196,13.34,0.024,315.0
2020-01-26T04:58:03,42.805,6.029,-0.013,0.034,-0.011,107.0,115.0,102.0,13.4,1505.3,326.4,-0.7,1.8,2470.192,13.33,0.036,339.1
2020-01-26T05:04:03,42.805,6.029,-0.035,0.018,-0.023,107.0,116.0,102.0,13.3,1505.3,325.6,-0.7,1.8,2470.247,13.31,0.039,297.2
2020-01-26T05:07:03,42.805,6.029,-0.019,0.011,-0.022,107.0,114.0,103.0,13.4,1505.3,323.5,-0.7,1.8,2470.24,13.32,0.021,300.1
2020-01-26T05:10:03,42.805,6.029,-0.044,-0.011,-0.014,109.0,113.0,103.0,13.4,1505.3,326.3,-0.7,1.9,2470.184,13.33,0.045,256.0
2020-01-26T05:13:03,42.805,6.029,-0.041,0.018,0.016,107.0,116.0,103.0,13.3,1505.3,325.9,-0.7,1.8,2470.223,13.33,0.044,293.7
2020-01-26T05:16:03,42.805,6.029,-0.001,0.012,0.01,105.0,114.0,103.0,13.3,1505.3,326.5,-0.7,1.9,2470.248,13.33,0.012,355.2
2020-01-26T05:19:03,42.805,6.029,-0.027,0.007,0.003,106.0,113.0,104.0,13.4,1505.3,323.4,-0.7,1.8,2470.25,13.33,0.027,284.5
2020-01-26T05:22:03,42.805,6.029,-0.029,0.03,-0.037,105.0,115.0,103.0,13.4,1505.3,328.2,-0.7,1.9,2470.244,13.33,0.041,316.0
2020-01-26T05:25:03,42.805,6.029,0.002,0.011,-0.009,108.0,114.0,103.0,13.4,1505.3,326.9,-0.7,1.8,2470.205,13.33,0.011,10.3
2020-01-26T05:28:03,42.805,6.029,-0.032,0.018,-0.021,107.0,112.0,103.0,13.4,1505.3,325.3,-0.7,1.9,2470.216,13.33,0.036,299.4
2020-01-26T05:31:03,42.805,6.029,-0.056,0.02,-0.034,106.0,114.0,104.0,13.3,1505.3,326.6,-0.7,1.8,2470.215,13.33,0.059,289.6
2020-01-26T05:34:03,42.805,6.029,-0.029,0.014,-0.005,107.0,115.0,102.0,13.4,1505.4,323.9,-0.7,1.8,2470.276,13.34,0.032,295.8
2020-01-26T05:37:03,42.805,6.029,-0.034,0.024,-0.035,106.0,114.0,103.0,13.4,1505.4,323.8,-0.7,1.8,2470.259,13.34,0.041,305.2
2020-01-26T05:40:03,42.805,6.029,-0.006,0.022,-0.018,106.0,112.0,104.0,13.4,1505.4,328.5,-0.7,1.9,2470.232,13.34,0.022,344.7
2020-01-26T05:43:03,42.805,6.029,-0.014,0.005,0.009,106.0,112.0,103.0,13.4,1505.4,326.3,-0.6,1.8,2470.202,13.34,0.014,289.6
2020-01-26T05:46:03,42.805,6.029,-0.02,0.004,0.003,107.0,114.0,103.0,13.3,1505.4,325.3,-0.7,1.8,2470.217,13.34,0.02,281.3
2020-01-26T05:49:03,42.805,6.029,-0.014,0.013,0.004,107.0,114.0,104.0,13.4,1505.4,325.8,-0.7,1.8,2470.247,13.34,0.019,312.9
2020-01-26T05:52:03,42.805,6.029,-0.058,0.0,-0.023,107.0,113.0,103.0,13.3,1505.4,323.4,-0.7,1.8,2470.234,13.34,0.057,270.0
2020-01-26T05:55:03,42.805,6.029,-0.041,0.028,-0.002,106.0,114.0,102.0,13.3,1505.4,327.5,-0.7,1.9,2470.275,13.34,0.049,304.3
2020-01-26T05:58:03,42.805,6.029,-0.035,0.004,-0.04,106.0,115.0,103.0,13.4,1505.4,323.8,-0.7,1.9,2470.275,13.34,0.035,276.5
2020-01-26T06:04:04,42.805,6.029,-0.03,0.016,-0.025,108.0,114.0,104.0,13.4,1505.3,323.5,-0.7,1.8,2470.342,13.32,0.034,298.1
2020-01-26T06:07:03,42.805,6.029,-0.013,0.029,-0.016,108.0,113.0,104.0,13.4,1505.3,324.9,-0.7,1.9,2470.305,13.33,0.031,335.9
2020-01-26T06:10:03,42.805,6.029,-0.024,0.024,-0.003,107.0,113.0,103.0,13.3,1505.3,326.7,-0.7,1.9,2470.315,13.33,0.033,315.0
2020-01-26T06:13:03,42.805,6.029,-0.017,0.033,-0.028,108.0,114.0,104.0,13.4,1505.3,326.0,-0.7,1.8,2470.278,13.33,0.037,332.7
2020-01-26T06:16:03,42.805,6.029,-0.011,0.017,0.005,107.0,113.0,103.0,13.4,1505.3,327.1,-0.7,1.8,2470.264,13.33,0.02,327.1
2020-01-26T06:19:03,42.805,6.029,-0.014,0.015,-0.022,106.0,113.0,103.0,13.3,1505.3,322.7,-0.7,1.8,2470.287,13.33,0.02,317.0
2020-01-26T06:22:03,42.805,6.029,-0.02,0.011,-0.015,107.0,114.0,104.0,13.3,1505.4,326.2,-0.7,1.8,2470.333,13.34,0.022,298.8
2020-01-26T06:25:03,42.805,6.029,-0.015,-0.01,-0.037,107.0,113.0,104.0,13.4,1505.4,324.6,-0.7,1.8,2470.277,13.34,0.018,236.3
2020-01-26T06:28:03,42.805,6.029,-0.025,0.028,0.016,107.0,112.0,103.0,13.4,1505.4,328.2,-0.7,1.8,2470.291,13.34,0.037,318.2
2020-01-26T06:31:03,42.805,6.029,-0.019,-0.005,-0.028,108.0,111.0,103.0,13.4,1505.4,323.2,-0.7,1.8,2470.246,13.34,0.019,255.3
2020-01-26T06:34:03,42.805,6.029,-0.026,0.014,-0.01,107.0,114.0,103.0,13.3,1505.4,327.0,-0.7,1.8,2470.296,13.34,0.029,298.3
2020-01-26T06:37:03,42.805,6.029,-0.004,0.009,-0.018,107.0,112.0,102.0,13.3,1505.4,324.4,-0.7,1.8,2470.299,13.34,0.009,336.0
2020-01-26T06:40:03,42.805,6.029,-0.027,0.027,0.029,107.0,113.0,104.0,13.4,1505.4,328.3,-0.7,1.8,2470.305,13.34,0.038,315.0
2020-01-26T06:43:03,42.805,6.029,-0.013,0.009,-0.009,109.0,113.0,103.0,13.3,1505.4,327.8,-0.7,1.8,2470.322,13.34,0.015,304.7
2020-01-26T06:46:03,42.805,6.029,-0.022,0.007,-0.029,107.0,113.0,102.0,13.4,1505.4,326.9,-0.7,1.9,2470.329,13.34,0.023,287.6
2020-01-26T06:49:03,42.805,6.029,-0.029,0.015,-0.015,106.0,112.0,102.0,13.4,1505.3,324.4,-0.7,1.8,2470.313,13.33,0.032,297.4
2020-01-26T06:52:03,42.805,6.029,-0.043,-0.001,-0.033,106.0,113.0,103.0,13.4,1505.3,323.7,-0.7,1.8,2470.32,13.33,0.043,268.7
2020-01-26T06:55:03,42.805,6.029,-0.049,0.032,-0.018,106.0,114.0,103.0,13.4,1505.3,325.1,-0.7,1.8,2470.334,13.33,0.058,303.2
2020-01-26T06:58:03,42.805,6.029,-0.039,0.0,-0.033,108.0,115.0,103.0,13.4,1505.3,325.6,-0.7,1.8,2470.325,13.33,0.039,270.0
2020-01-26T07:04:03,42.805,6.029,-0.055,0.03,-0.013,107.0,113.0,103.0,13.4,1505.3,324.8,-0.8,1.8,2470.363,13.32,0.062,298.6
2020-01-26T07:07:03,42.805,6.029,-0.035,0.004,-0.017,108.0,114.0,103.0,13.3,1505.3,323.4,-0.8,1.8,2470.336,13.32,0.035,276.5
2020-01-26T07:10:03,42.805,6.029,-0.034,0.015,-0.021,106.0,113.0,104.0,13.4,1505.3,326.0,-0.7,1.9,2470.352,13.33,0.037,293.8
2020-01-26T07:13:03,42.805,6.029,-0.011,0.029,0.022,106.0,114.0,103.0,13.4,1505.3,326.4,-0.7,1.9,2470.345,13.33,0.031,339.2
2020-01-26T07:16:03,42.805,6.029,-0.036,0.006,-0.052,107.0,113.0,103.0,13.4,1505.3,326.4,-0.7,1.9,2470.349,13.33,0.036,279.5
2020-01-26T07:19:03,42.805,6.029,-0.026,0.02,-0.03,106.0,113.0,104.0,13.4,1505.3,326.2,-0.7,1.8,2470.382,13.33,0.032,307.6
2020-01-26T07:22:03,42.805,6.029,-0.022,0.032,0.013,108.0,113.0,104.0,13.4,1505.3,324.6,-0.7,1.8,2470.355,13.33,0.038,325.5
2020-01-26T07:25:03,42.805,6.029,-0.027,0.0,-0.009,108.0,114.0,104.0,13.4,1505.3,326.5,-0.7,1.8,2470.353,13.33,0.026,270.0
2020-01-26T07:28:03,42.805,6.029,-0.039,0.016,-0.028,108.0,113.0,104.0,13.4,1505.3,323.7,-0.7,1.8,2470.356,13.33,0.042,292.3
2020-01-26T07:31:03,42.805,6.029,-0.042,0.015,-0.019,108.0,112.0,103.0,13.3,1505.3,326.1,-0.7,1.8,2470.324,13.33,0.044,289.6
2020-01-26T07:34:03,42.805,6.029,-0.026,0.021,-0.004,108.0,112.0,104.0,13.3,1505.3,326.6,-0.7,1.8,2470.338,13.33,0.033,308.9
2020-01-26T07:37:03,42.805,6.029,-0.024,0.019,0.0,107.0,113.0,102.0,13.4,1505.3,324.0,-0.7,1.8,2470.317,13.33,0.03,308.4
2020-01-26T07:40:03,42.805,6.029,-0.012,0.01,-0.019,106.0,114.0,103.0,13.4,1505.3,328.6,-0.7,1.8,2470.358,13.33,0.015,309.8
2020-01-26T07:43:03,42.805,6.029,-0.032,0.012,-0.007,108.0,114.0,103.0,13.3,1505.3,327.0,-0.7,1.8,2470.369,13.33,0.034,290.6
2020-01-26T07:46:03,42.805,6.029,-0.056,0.027,-0.047,107.0,113.0,104.0,13.3,1505.3,325.1,-0.7,1.8,2470.356,13.33,0.062,295.7
2020-01-26T07:49:03,42.805,6.029,-0.033,0.02,-0.014,108.0,113.0,103.0,13.3,1505.3,326.7,-0.7,1.8,2470.391,13.33,0.038,301.2
2020-01-26T07:52:03,42.805,6.029,-0.029,0.003,0.014,108.0,113.0,104.0,13.4,1505.3,323.0,-0.7,1.9,2470.298,13.33,0.029,275.9
2020-01-26T07:55:03,42.805,6.029,-0.016,0.02,0.015,107.0,113.0,103.0,13.4,1505.3,327.0,-0.7,1.8,2470.361,13.33,0.025,321.3
2020-01-26T07:58:03,42.805,6.029,-0.036,0.012,0.015,107.0,113.0,105.0,13.4,1505.3,325.7,-0.7,1.9,2470.376,13.33,0.037,288.4
2020-01-26T08:04:03,42.805,6.029,-0.059,0.01,-0.053,107.0,112.0,104.0,13.4,1505.3,327.7,-0.7,1.8,2470.413,13.31,0.059,279.6
2020-01-26T08:07:03,42.805,6.029,-0.025,0.018,0.005,107.0,113.0,105.0,13.4,1505.3,326.9,-0.8,1.8,2470.418,13.32,0.03,305.8
2020-01-26T08:10:03,42.805,6.029,-0.031,0.019,-0.001,108.0,113.0,104.0,13.4,1505.3,323.2,-0.7,1.8,2470.384,13.32,0.036,301.5
2020-01-26T08:13:03,42.805,6.029,-0.059,0.018,-0.02,108.0,113.0,104.0,13.3,1505.3,327.3,-0.7,1.8,2470.387,13.33,0.061,287.0
2020-01-26T08:16:03,42.805,6.029,-0.006,0.02,-0.005,108.0,114.0,103.0,13.4,1505.3,325.1,-0.7,1.8,2470.401,13.33,0.02,343.3
2020-01-26T08:19:03,42.805,6.029,-0.019,0.019,-0.01,107.0,112.0,104.0,13.3,1505.3,327.2,-0.6,1.9,2470.389,13.33,0.026,315.0
2020-01-26T08:22:03,42.805,6.029,-0.028,0.015,-0.01,109.0,112.0,105.0,13.4,1505.3,326.5,-0.7,1.8,2470.375,13.33,0.031,298.2
2020-01-26T08:25:03,42.805,6.029,-0.014,0.016,-0.004,108.0,113.0,104.0,13.4,1505.3,326.7,-0.7,1.8,2470.361,13.33,0.021,318.8
2020-01-26T08:28:03,42.805,6.029,-0.025,0.011,-0.012,108.0,114.0,104.0,13.4,1505.3,325.9,-0.7,1.8,2470.333,13.33,0.027,293.7
2020-01-26T08:31:03,42.805,6.029,-0.028,0.002,-0.021,108.0,112.0,106.0,13.4,1505.3,325.3,-0.7,1.9,2470.375,13.33,0.028,274.1
2020-01-26T08:34:03,42.805,6.029,-0.023,0.006,-0.01,109.0,113.0,104.0,13.4,1505.3,325.1,-0.7,1.8,2470.389,13.33,0.023,284.6
2020-01-26T08:37:03,42.805,6.029,-0.025,0.0,-0.02,109.0,112.0,104.0,13.4,1505.3,325.1,-0.7,1.9,2470.37,13.33,0.025,270.0
2020-01-26T08:40:03,42.805,6.029,-0.047,0.001,-0.014,108.0,113.0,104.0,13.4,1505.3,323.3,-0.7,1.8,2470.394,13.33,0.047,271.2
2020-01-26T08:43:03,42.805,6.029,-0.019,0.014,0.014,109.0,114.0,105.0,13.4,1505.3,324.4,-0.7,1.8,2470.404,13.33,0.023,306.4
2020-01-26T08:46:03,42.805,6.029,-0.036,0.012,-0.011,108.0,114.0,104.0,13.3,1505.3,323.7,-0.7,1.8,2470.366,13.33,0.037,288.4
2020-01-26T08:49:03,42.805,6.029,-0.026,0.018,0.022,108.0,114.0,104.0,13.4,1505.3,327.5,-0.7,1.9,2470.44,13.33,0.031,304.7
2020-01-26T08:52:03,42.805,6.029,-0.039,0.02,-0.018,108.0,113.0,102.0,13.3,1505.3,326.0,-0.7,1.9,2470.329,13.33,0.043,297.1
2020-01-26T08:55:03,42.805,6.029,-0.064,0.001,-0.047,109.0,114.0,104.0,13.4,1505.3,325.9,-0.8,1.8,2470.385,13.33,0.064,270.9
2020-01-26T08:58:03,42.805,6.029,-0.024,0.033,-0.022,108.0,112.0,104.0,13.4,1505.3,324.3,-0.7,1.8,2470.397,13.33,0.04,324.0
2020-01-26T09:04:03,42.805,6.029,-0.035,0.009,-0.004,108.0,112.0,104.0,13.4,1505.3,327.2,-0.8,1.8,2470.396,13.31,0.036,284.4
2020-01-26T09:07:03,42.805,6.029,-0.036,-0.009,-0.018,108.0,114.0,104.0,13.3,1505.3,322.8,-0.7,1.8,2470.394,13.32,0.037,256.0
2020-01-26T09:10:03,42.805,6.029,-0.039,0.009,0.004,109.0,112.0,106.0,13.4,1505.3,326.0,-0.7,1.9,2470.38,13.32,0.04,283.0
2020-01-26T09:13:03,42.805,6.029,-0.015,0.024,0.009,108.0,112.0,105.0,13.4,1505.3,328.0,-0.7,1.8,2470.362,13.33,0.028,328.0
2020-01-26T09:16:03,42.805,6.029,-0.023,0.022,0.013,108.0,113.0,104.0,13.4,1505.3,324.3,-0.7,1.8,2470.369,13.33,0.031,313.7
2020-01-26T09:19:03,42.805,6.029,-0.053,0.003,-0.014,108.0,113.0,103.0,13.3,1505.3,324.2,-0.8,1.8,2470.343,13.33,0.053,273.2
2020-01-26T09:22:03,42.805,6.029,-0.028,0.009,-0.009,107.0,113.0,105.0,13.4,1505.3,327.0,-0.7,1.9,2470.393,13.33,0.029,287.8
2020-01-26T09:25:03,42.805,6.029,-0.031,0.011,0.014,108.0,112.0,105.0,13.4,1505.3,326.5,-0.7,1.8,2470.373,13.33,0.032,289.5
2020-01-26T09:28:03,42.805,6.029,-0.037,0.004,0.003,109.0,111.0,104.0,13.4,1505.3,326.4,-0.7,1.8,2470.39,13.33,0.037,276.2
2020-01-26T09:31:03,42.805,6.029,-0.024,0.028,-0.008,108.0,112.0,104.0,13.3,1505.3,326.7,-0.7,1.8,2470.363,13.33,0.036,319.4
2020-01-26T09:34:03,42.805,6.029,-0.031,0.022,0.011,109.0,111.0,104.0,13.4,1505.3,325.9,-0.7,1.9,2470.362,13.33,0.038,305.4
2020-01-26T09:37:03,42.805,6.029,-0.042,0.011,0.007,108.0,112.0,104.0,13.4,1505.3,325.1,-0.7,1.8,2470.341,13.33,0.043,284.7
2020-01-26T09:40:03,42.805,6.029,-0.038,0.023,-0.027,108.0,112.0,106.0,13.4,1505.3,324.2,-0.7,1.8,2470.396,13.33,0.044,301.2
2020-01-26T09:43:03,42.805,6.029,-0.018,0.02,-0.017,108.0,113.0,104.0,13.4,1505.3,325.9,-0.7,1.8,2470.374,13.33,0.026,318.0
2020-01-26T09:46:03,42.805,6.029,-0.027,0.003,-0.004,109.0,111.0,103.0,13.4,1505.3,326.8,-0.7,1.8,2470.353,13.33,0.027,276.3
2020-01-26T09:49:03,42.805,6.029,-0.059,0.019,0.009,108.0,111.0,103.0,13.3,1505.3,323.3,-0.7,1.8,2470.39,13.33,0.061,287.8
2020-01-26T09:52:03,42.805,6.029,-0.024,0.015,0.0,109.0,111.0,104.0,13.4,1505.3,328.2,-0.7,1.8,2470.34,13.33,0.028,302.0
2020-01-26T09:55:03,42.805,6.029,-0.007,0.029,0.012,109.0,111.0,105.0,13.4,1505.3,324.3,-0.7,1.8,2470.359,13.33,0.029,346.4